Home   Weather   Patras   Past weeks

Flag for Greece Past Weather in Patras, Greece — Yesterday and Last 2 Weeks

63 °F

More clouds than sun.

Feels Like: 63 °F
Forecast: 60 / 77 °F
Wind: No wind

Location: Araxos Airport

Current Time: Oct 22, 2016 at 4:30:57 PM

Latest Report: Oct 22, 2016 at 3:20 PM

Visibility: N/A

Pressure: 30.01 "Hg

Humidity: 100%

Dew Point: 63 °F

Location of PatrasLocation

Past Weather in Patras — Graph


Patras Temperature Yesterday

Maximum temperature yesterday: 66 °F (at 1:50 AM)
Minimum temperature yesterday: 61 °F (at 4:50 AM)
Average temperature yesterday: 64 °F

High & Low Weather Summary for the Past Weeks

High79 °F (Oct 16, 12:50 PM)100% (Oct 7, 7:20 PM)30.21 "Hg (Oct 7, 7:20 PM)
Low50 °F (Oct 13, 6:20 AM)34% (Oct 9, 2:50 PM)29.77 "Hg (Oct 11, 3:20 PM)
Average66 °F77%30.03 "Hg
* Reported Oct 7 2:20 PM — Oct 22 2:50 PM, Patras, Weather by CustomWeather, © 2016

Note: Actual official high and low records may vary slightly from our data, if they occured in-between our weather recording intervals... More about our weather records


Patras Weather History for the Previous 24 Hours

Scroll right to see more
Time TempWeatherWind HumidityBarometerVisibility
2:50 PM
Sat, Oct 22
63 °FMore clouds than sun.No wind100%30.01 "HgN/A
2:20 PM61 °FMore clouds than sun.No wind100%30.01 "HgN/A
1:50 PM61 °FMore clouds than sun.No wind100%30.01 "HgN/A
1:20 PM61 °FThunderstorms. Overcast.5 mph100%29.98 "HgN/A
12:50 PM61 °FOvercast.No wind100%29.98 "HgN/A
12:20 PM61 °FThunderstorms. More clouds than sun.No wind100%29.98 "HgN/A
11:50 AM61 °FThunderstorms. More clouds than sun.No wind100%30.01 "HgN/A
10:50 AM61 °FThunderstorms. More clouds than sun.9 mph100%30.01 "Hg3 mi
10:20 AM61 °FThunderstorms. More clouds than sun.9 mph100%30.01 "Hg2 mi
9:50 AM61 °FThunderstorms. More clouds than sun.18 mph100%30.04 "Hg2 mi
9:20 AM64 °FHeavy rain. More clouds than sun.16 mph88%30.01 "Hg3 mi
8:50 AM68 °FBroken clouds.9 mph88%29.92 "HgN/A
8:20 AM68 °FBroken clouds.8 mph88%29.92 "HgN/A
7:50 AM68 °FCloudy.12 mph88%29.95 "HgN/A
7:20 AM68 °FPartly cloudy.9 mph88%29.92 "HgN/A
6:50 AM66 °FThundershowers. Partly cloudy.No wind94%29.95 "HgN/A
6:20 AM66 °FOvercast.No wind88%29.95 "HgN/A
5:50 AM64 °FPartly cloudy.5 mph94%29.95 "HgN/A
4:50 AM66 °FPartly cloudy.No wind94%29.95 "HgN/A
3:50 AM66 °FPartly cloudy.6 mph88%29.95 "HgN/A
2:50 AM66 °FPassing clouds.No wind88%29.95 "HgN/A
1:50 AM66 °FPartly cloudy.5 mph94%30.01 "HgN/A
12:50 AM66 °FPartly cloudy.No wind88%30.01 "HgN/A
11:50 PM
Fri, Oct 21
66 °FMostly cloudy.No wind94%30.01 "HgN/A
10:50 PM64 °FMostly cloudy.6 mph100%30.01 "HgN/A
9:20 PM64 °FMostly cloudy.8 mph94%30.01 "HgN/A
8:50 PM64 °FLight rain. Mostly cloudy.6 mph94%30.01 "HgN/A
8:20 PM64 °FMostly cloudy.8 mph94%30.01 "HgN/A
7:50 PM64 °FMostly cloudy.8 mph94%30.01 "HgN/A
7:20 PM64 °FMostly cloudy.7 mph94%30.01 "HgN/A
6:50 PM64 °FPartly cloudy.5 mph94%29.98 "HgN/A
6:20 PM64 °FMore clouds than sun.8 mph94%29.98 "HgN/A
5:50 PM64 °FMore clouds than sun.6 mph94%29.98 "HgN/A
5:20 PM64 °FMore clouds than sun.7 mph94%29.98 "HgN/A
4:50 PM64 °FMore clouds than sun.8 mph94%29.98 "HgN/A
4:20 PM64 °FLight rain. More clouds than sun.5 mph94%29.98 "HgN/A
Weather by CustomWeather, © 2016

See weather overviewHow to use our weather pages